Regional Weather Roundup
Issued by NWS Charleston, WV

Home | Current Version | Previous Version | Graphics & Text | Print | Product List | Glossary On
Versions: 1 2 3 4 5 6 7 8 9 10 11 12 13 14 15 16 17 18 19 20 21 22 23 24 25 26 27
000
ASUS41 KRLX 151810
RWRRLX
West Virginia Regional Weather Roundup
National Weather Service Charleston WV
200 PM EDT TUE APR 15 2014

Note: "fair" indicates few or no clouds below 12,000 feet with no
significant weather and/or obstructions to visibility.

WVZ003-151900-
Northern Panhandle of West Virginia

CITY           SKY/WX    TMP DP  RH WIND       PRES   REMARKS
WHEELING       LGT SNOW  32  29  88 NW10      29.92R VSB 3/4
$$

WVZ009-151900-
Northwest West Virginia

CITY           SKY/WX    TMP DP  RH WIND       PRES   REMARKS
PARKERSBURG    CLOUDY    36  31  82 NW8       30.00S
$$

WVZ006-151900-
Western West Virginia

CITY           SKY/WX    TMP DP  RH WIND       PRES   REMARKS
HUNTINGTON     CLOUDY    35  30  82 NW13G18   30.03R
$$

WVZ015-151900-
West Central West Virginia

CITY           SKY/WX    TMP DP  RH WIND       PRES   REMARKS
CHARLESTON     LGT SNOW  34  33  96 W10       29.98R VSB 1
$$

WVZ031-151900-
North Central West Virginia

CITY           SKY/WX    TMP DP  RH WIND       PRES   REMARKS
CLARKSBURG     LGT RAIN  38  33  82 W15       29.89R
MORGANTOWN     CLOUDY    39  33  79 NW10      29.89R
$$

WVZ035-042-045-151900-
South Central West Virginia

CITY           SKY/WX    TMP DP  RH WIND       PRES   REMARKS
BECKLEY        HVY SNOW  31  28  89 NW13      29.89R VSB 1/4
BLUEFIELD      SNOW      34  30  85 NW14G24   29.85S VSB 1/2
LEWISBURG      NOT AVBL
$$

WVZ047-151900-
Northern Mountains of West Virginia

CITY           SKY/WX    TMP DP  RH WIND       PRES   REMARKS
ELKINS         LGT SNOW  35  31  85 N8        29.86R FOG
$$

WVZ052-151900-
Eastern Panhandle of West Virginia

CITY           SKY/WX    TMP DP  RH WIND       PRES   REMARKS
MARTINSBURG    RAIN      46  39  76 NW13G21   29.73R
PETERSBURG     CLOUDY    52  40  63 NW13      29.75R
$$



USA.gov is the U.S. government's official web portal to all federal, state and local government web resources and services.